Location: Althorst
(53.6379°N, 10.7715°E)
Time: 13:57:43
(UTC+00:00)

Cosmos 2026 Rocket - Pass Details

Date: 10 December 2019
Orbit: 940 x 1000 km, 82.9° (Epoch: 29 January)

Event Time Altitude Azimuth Distance (km) Brightness Sun altitude
Rises 17:55:21 0° 195° (SSW) 3,597 7.2 -24.9°
Reaches altitude 10° 17:57:50 10° 197° (SSW) 2,654 6.5 -25.3°
Maximum altitude 18:03:53 74° 283° (WNW) 984 4.0 -26.2°
Drops below altitude 10° 18:10:00 10° 8° (N) 2,677 6.2 -27.1°
Enters shadow 18:10:42 - 9° (N) 2,939 6.4 -27.2°
